Time,TemperatureF,DewpointF,PressureIn,WindDirection,WindDirectionDegrees,WindSpeedMPH,WindSpeedGustMPH,Humidity,HourlyPrecipIn,Conditions,Clouds,dailyrainin,SoftwareType,DateUTC
2013-09-08 07:30:00,71.4,69.3,29.89,ENE,68,2.0,10.0,93,0.00,,---,0.00,VWS V14.01,2013-09-08 12:30:00,
2013-09-08 09:30:00,74.8,70.3,29.90,ENE,68,4.0,14.0,86,0.00,,---,0.00,VWS V14.01,2013-09-08 14:30:00,
2013-09-08 10:30:00,79.2,71.8,29.92,East,90,3.0,10.0,78,0.00,,---,0.00,VWS V14.01,2013-09-08 15:30:00,
2013-09-08 12:00:00,82.4,72.9,29.90,East,90,4.0,11.0,73,0.00,,---,0.00,VWS V14.01,2013-09-08 17:00:00,
2013-09-08 13:30:00,86.2,74.0,29.87,East,90,5.0,14.0,67,0.00,,---,0.00,VWS V14.01,2013-09-08 18:30:00,
2013-09-08 14:00:00,85.0,73.7,29.86,East,90,4.0,12.0,69,0.00,,---,0.00,VWS V14.01,2013-09-08 19:00:00,
2013-09-08 15:00:00,87.3,74.1,29.84,East,90,5.0,14.0,65,0.00,,---,0.00,VWS V14.01,2013-09-08 20:00:00,
2013-09-08 16:00:00,87.3,73.6,29.84,East,90,4.0,13.0,64,0.00,,---,0.00,VWS V14.01,2013-09-08 21:00:00,
2013-09-08 16:30:00,88.1,74.4,29.83,East,90,4.0,11.0,64,0.00,,---,0.00,VWS V14.01,2013-09-08 21:30:00,
2013-09-08 17:01:00,86.8,74.1,29.82,ENE,73,6.0,7.0,66,0.00,,---,0.00,VWS V14.01,2013-09-08 22:01:00,
2013-09-08 17:02:00,86.8,74.1,29.82,SSE,148,2.0,7.0,66,0.00,,---,0.00,VWS V14.01,2013-09-08 22:02:00,
2013-09-08 17:06:00,87.0,73.8,29.82,NNE,26,5.0,14.0,65,0.00,,---,0.00,VWS V14.01,2013-09-08 22:06:00,
2013-09-08 17:07:00,87.0,74.3,29.82,East,79,4.0,14.0,66,0.00,,---,0.00,VWS V14.01,2013-09-08 22:07:00,
2013-09-08 17:12:00,87.5,74.8,29.82,East,79,3.0,14.0,66,0.00,,---,0.00,VWS V14.01,2013-09-08 22:12:00,
2013-09-08 17:17:00,87.5,74.3,29.82,SSE,158,1.0,14.0,65,0.00,,---,0.00,VWS V14.01,2013-09-08 22:17:00,
2013-09-08 17:23:00,87.6,74.4,29.82,ENE,66,8.0,14.0,65,0.00,,---,0.00,VWS V14.01,2013-09-08 22:23:00,
2013-09-08 17:28:00,87.4,74.2,29.82,East,92,4.0,14.0,65,0.00,,---,0.00,VWS V14.01,2013-09-08 22:28:00,
2013-09-08 17:33:00,87.4,74.2,29.82,ENE,70,5.0,8.0,65,0.00,,---,0.00,VWS V14.01,2013-09-08 22:33:00,
2013-09-08 17:38:00,87.5,74.3,29.82,SE,124,1.0,8.0,65,0.00,,---,0.00,VWS V14.01,2013-09-08 22:38:00,
2013-09-08 17:43:00,87.4,74.2,29.82,ESE,102,3.0,8.0,65,0.00,,---,0.00,VWS V14.01,2013-09-08 22:43:00,
2013-09-08 17:48:00,87.5,74.3,29.82,East,98,2.0,8.0,65,0.00,,---,0.00,VWS V14.01,2013-09-08 22:48:00,
2013-09-08 17:53:00,87.3,74.1,29.82,NE,56,2.0,9.0,65,0.00,,---,0.00,VWS V14.01,2013-09-08 22:53:00,
2013-09-08 17:58:00,87.2,74.0,29.82,ESE,104,5.0,11.0,65,0.00,,---,0.00,VWS V14.01,2013-09-08 22:58:00,
2013-09-08 18:03:00,87.1,74.4,29.82,East,82,2.0,6.0,66,0.00,,---,0.00,VWS V14.01,2013-09-08 23:03:00,
2013-09-08 18:08:00,87.2,74.5,29.82,East,101,3.0,6.0,66,0.00,,---,0.00,VWS V14.01,2013-09-08 23:08:00,
2013-09-08 18:13:00,87.0,74.3,29.81,East,88,5.0,8.0,66,0.00,,---,0.00,VWS V14.01,2013-09-08 23:13:00,
2013-09-08 18:18:00,86.8,74.5,29.82,East,98,3.0,8.0,67,0.00,,---,0.00,VWS V14.01,2013-09-08 23:18:00,
2013-09-08 18:23:00,86.5,74.2,29.82,ENE,72,6.0,9.0,67,0.00,,---,0.00,VWS V14.01,2013-09-08 23:23:00,
2013-09-08 18:28:00,86.3,74.5,29.81,ESE,106,1.0,10.0,68,0.00,,---,0.00,VWS V14.01,2013-09-08 23:28:00,
2013-09-08 18:33:00,86.2,74.4,29.81,East,95,2.0,6.0,68,0.00,,---,0.00,VWS V14.01,2013-09-08 23:33:00,
2013-09-08 18:38:00,86.0,74.2,29.81,East,82,2.0,8.0,68,0.00,,---,0.00,VWS V14.01,2013-09-08 23:38:00,
2013-09-08 18:43:00,85.7,74.4,29.81,ESE,108,3.0,8.0,69,0.00,,---,0.00,VWS V14.01,2013-09-08 23:43:00,
2013-09-08 18:48:00,85.4,74.1,29.81,ENE,68,4.0,10.0,69,0.00,,---,0.00,VWS V14.01,2013-09-08 23:48:00,
2013-09-08 18:53:00,85.1,74.2,29.80,ENE,58,2.0,10.0,70,0.00,,---,0.00,VWS V14.01,2013-09-08 23:53:00,
2013-09-08 18:58:00,84.9,74.0,29.80,ENE,76,6.0,10.0,70,0.00,,---,0.00,VWS V14.01,2013-09-08 23:58:00,
2013-09-08 19:03:00,84.7,74.3,29.80,East,91,1.0,7.0,71,0.00,,---,0.00,VWS V14.01,2013-09-09 00:03:00,
2013-09-08 19:08:00,84.5,74.1,29.81,East,85,2.0,7.0,71,0.00,,---,0.00,VWS V14.01,2013-09-09 00:08:00,
2013-09-08 19:13:00,84.2,74.2,29.80,ENE,78,2.0,7.0,72,0.00,,---,0.00,VWS V14.01,2013-09-09 00:13:00,
2013-09-08 19:18:00,84.0,74.0,29.81,East,84,2.0,7.0,72,0.00,,---,0.00,VWS V14.01,2013-09-09 00:18:00,
2013-09-08 19:23:00,83.7,73.7,29.80,East,98,1.0,7.0,72,0.00,,---,0.00,VWS V14.01,2013-09-09 00:23:00,
2013-09-08 19:28:00,83.4,73.8,29.81,East,95,2.0,7.0,73,0.00,,---,0.00,VWS V14.01,2013-09-09 00:28:00,
2013-09-08 19:33:00,83.1,73.6,29.81,ENE,64,4.0,5.0,73,0.00,,---,0.00,VWS V14.01,2013-09-09 00:33:00,
2013-09-08 19:38:00,82.8,73.7,29.81,ESE,117,1.0,8.0,74,0.00,,---,0.00,VWS V14.01,2013-09-09 00:38:00,
2013-09-08 19:43:00,82.5,73.4,29.81,ESE,102,6.0,8.0,74,0.00,,---,0.00,VWS V14.01,2013-09-09 00:43:00,
2013-09-08 19:48:00,82.3,73.2,29.81,ENE,75,1.0,8.0,74,0.00,,---,0.00,VWS V14.01,2013-09-09 00:48:00,
2013-09-08 19:53:00,82.0,73.3,29.81,East,82,1.0,8.0,75,0.00,,---,0.00,VWS V14.01,2013-09-09 00:53:00,
2013-09-08 19:58:00,81.8,73.1,29.81,ENE,76,1.0,8.0,75,0.00,,---,0.00,VWS V14.01,2013-09-09 00:58:00,
2013-09-08 20:03:00,81.6,72.9,29.81,ESE,115,2.0,6.0,75,0.00,,---,0.00,VWS V14.01,2013-09-09 01:03:00,
2013-09-08 20:08:00,81.4,73.1,29.81,East,79,9.0,9.0,76,0.00,,---,0.00,VWS V14.01,2013-09-09 01:08:00,
2013-09-08 20:13:00,81.2,72.9,29.81,ENE,64,3.0,11.0,76,0.00,,---,0.00,VWS V14.01,2013-09-09 01:13:00,
2013-09-08 20:18:00,81.1,72.8,29.82,East,79,2.0,11.0,76,0.00,,---,0.00,VWS V14.01,2013-09-09 01:18:00,
2013-09-08 20:23:00,80.9,73.0,29.82,East,89,7.0,13.0,77,0.00,,---,0.00,VWS V14.01,2013-09-09 01:23:00,
2013-09-08 20:28:00,80.7,72.8,29.82,East,98,3.0,13.0,77,0.00,,---,0.00,VWS V14.01,2013-09-09 01:28:00,
2013-09-08 20:33:00,80.5,72.6,29.82,ESE,113,4.0,10.0,77,0.00,,---,0.00,VWS V14.01,2013-09-09 01:33:00,
2013-09-08 20:38:00,80.4,72.5,29.82,East,87,4.0,10.0,77,0.00,,---,0.00,VWS V14.01,2013-09-09 01:38:00,
2013-09-08 20:43:00,80.2,72.7,29.82,ENE,63,4.0,10.0,78,0.00,,---,0.00,VWS V14.01,2013-09-09 01:43:00,
2013-09-08 20:48:00,80.0,72.5,29.82,ENE,77,4.0,10.0,78,0.00,,---,0.00,VWS V14.01,2013-09-09 01:48:00,
2013-09-08 20:53:00,79.8,72.3,29.82,ESE,104,8.0,10.0,78,0.00,,---,0.00,VWS V14.01,2013-09-09 01:53:00,
2013-09-08 20:58:00,79.6,72.5,29.82,ENE,68,4.0,10.0,79,0.00,,---,0.00,VWS V14.01,2013-09-09 01:58:00,
2013-09-08 21:03:00,79.5,72.4,29.82,East,93,3.0,11.0,79,0.00,,---,0.00,VWS V14.01,2013-09-09 02:03:00,
2013-09-08 21:08:00,79.3,72.2,29.82,NE,53,6.0,13.0,79,0.00,,---,0.00,VWS V14.01,2013-09-09 02:08:00,
2013-09-08 21:13:00,79.2,72.1,29.82,ESE,108,4.0,13.0,79,0.00,,---,0.00,VWS V14.01,2013-09-09 02:13:00,
2013-09-08 21:19:00,79.1,72.4,29.82,East,96,5.0,13.0,80,0.00,,---,0.00,VWS V14.01,2013-09-09 02:19:00,
2013-09-08 21:24:00,79.0,72.3,29.82,ENE,67,3.0,13.0,80,0.00,,---,0.00,VWS V14.01,2013-09-09 02:24:00,
2013-09-08 21:29:00,78.9,72.2,29.82,ESE,106,4.0,4.0,80,0.00,,---,0.00,VWS V14.01,2013-09-09 02:29:00,
2013-09-08 21:34:00,78.8,72.1,29.81,East,81,7.0,8.0,80,0.00,,---,0.00,VWS V14.01,2013-09-09 02:34:00,
2013-09-08 21:39:00,78.7,72.0,29.81,ESE,113,2.0,8.0,80,0.00,,---,0.00,VWS V14.01,2013-09-09 02:39:00,
2013-09-08 21:44:00,78.5,71.8,29.81,ENE,71,4.0,8.0,80,0.00,,---,0.00,VWS V14.01,2013-09-09 02:44:00,
2013-09-08 21:49:00,78.4,72.1,29.82,ENE,68,1.0,8.0,81,0.00,,---,0.00,VWS V14.01,2013-09-09 02:49:00,
2013-09-08 21:54:00,78.3,72.0,29.81,East,80,2.0,8.0,81,0.00,,---,0.00,VWS V14.01,2013-09-09 02:54:00,
2013-09-08 21:59:00,78.2,71.9,29.81,ENE,61,1.0,2.0,81,0.00,,---,0.00,VWS V14.01,2013-09-09 02:59:00,
2013-09-08 22:04:00,78.1,71.8,29.81,East,86,6.0,7.0,81,0.00,,---,0.00,VWS V14.01,2013-09-09 03:04:00,
2013-09-08 22:09:00,77.9,72.0,29.81,East,101,2.0,9.0,82,0.00,,---,0.00,VWS V14.01,2013-09-09 03:09:00,
2013-09-08 22:14:00,77.8,71.9,29.81,East,101,2.0,10.0,82,0.00,,---,0.00,VWS V14.01,2013-09-09 03:14:00,
2013-09-08 22:19:00,77.8,71.9,29.82,ESE,120,0.0,10.0,82,0.00,,---,0.00,VWS V14.01,2013-09-09 03:19:00,
2013-09-08 22:24:00,77.5,71.6,29.81,East,95,2.0,10.0,82,0.00,,---,0.00,VWS V14.01,2013-09-09 03:24:00,
2013-09-08 22:29:00,77.3,71.7,29.81,East,101,1.0,2.0,83,0.00,,---,0.00,VWS V14.01,2013-09-09 03:29:00,
2013-09-08 22:34:00,77.2,71.6,29.81,NE,53,4.0,8.0,83,0.00,,---,0.00,VWS V14.01,2013-09-09 03:34:00,
2013-09-08 22:39:00,77.0,71.8,29.81,ENE,72,4.0,8.0,84,0.00,,---,0.00,VWS V14.01,2013-09-09 03:39:00,
2013-09-08 22:44:00,76.8,71.6,29.81,NE,51,2.0,8.0,84,0.00,,---,0.00,VWS V14.01,2013-09-09 03:44:00,
2013-09-08 22:49:00,76.6,71.4,29.81,ENE,65,2.0,8.0,84,0.00,,---,0.00,VWS V14.01,2013-09-09 03:49:00,
2013-09-08 22:54:00,76.5,71.7,29.81,NNE,32,2.0,8.0,85,0.00,,---,0.00,VWS V14.01,2013-09-09 03:54:00,
2013-09-08 23:00:00,76.4,71.6,29.81,ENE,72,4.0,5.0,85,0.00,,---,0.00,VWS V14.01,2013-09-09 04:00:00,
2013-09-08 23:01:00,76.3,71.5,29.81,East,91,2.0,5.0,85,0.00,,---,0.00,VWS V14.01,2013-09-09 04:01:00,
2013-09-08 23:02:00,76.3,71.5,29.81,East,83,3.0,5.0,85,0.00,,---,0.00,VWS V14.01,2013-09-09 04:02:00,
2013-09-08 23:03:00,76.3,71.5,29.81,ENE,61,4.0,9.0,85,0.00,,---,0.00,VWS V14.01,2013-09-09 04:03:00,
2013-09-08 23:08:00,76.1,71.3,29.81,ENE,65,3.0,9.0,85,0.00,,---,0.00,VWS V14.01,2013-09-09 04:08:00,
2013-09-08 23:13:00,76.1,71.6,29.81,East,82,5.0,9.0,86,0.00,,---,0.00,VWS V14.01,2013-09-09 04:13:00,
2013-09-08 23:18:00,75.9,71.4,29.80,ENE,78,2.0,9.0,86,0.00,,---,0.00,VWS V14.01,2013-09-09 04:18:00,
2013-09-08 23:23:00,75.9,71.4,29.81,ENE,61,4.0,9.0,86,0.00,,---,0.00,VWS V14.01,2013-09-09 04:23:00,
2013-09-08 23:28:00,75.8,71.3,29.80,East,83,5.0,9.0,86,0.00,,---,0.00,VWS V14.01,2013-09-09 04:28:00,
2013-09-08 23:33:00,75.6,71.5,29.80,East,94,2.0,6.0,87,0.00,,---,0.00,VWS V14.01,2013-09-09 04:33:00,
2013-09-08 23:38:00,75.5,71.4,29.80,ENE,70,2.0,6.0,87,0.00,,---,0.00,VWS V14.01,2013-09-09 04:38:00,
2013-09-08 23:43:00,75.5,71.4,29.80,ENE,72,2.0,6.0,87,0.00,,---,0.00,VWS V14.01,2013-09-09 04:43:00,
2013-09-08 23:48:00,75.4,71.3,29.81,ENE,78,3.0,6.0,87,0.00,,---,0.00,VWS V14.01,2013-09-09 04:48:00,
2013-09-08 23:53:00,75.3,71.5,29.80,ESE,103,2.0,6.0,88,0.00,,---,0.00,VWS V14.01,2013-09-09 04:53:00,
2013-09-08 23:58:00,75.2,71.4,29.80,ENE,78,1.0,6.0,88,0.00,,---,0.00,VWS V14.01,2013-09-09 04:58:00,